This is the latest recevied weather packets stored in our database for station/object N7TUG-8. If no packets are shown the sender has not sent any weather packets the latest 10 day(s).
| Time | Temp. | Humidity | Pressure | Rain* | Wind** | Luminosity | Snow |
|---|---|---|---|---|---|---|---|
| 1777557636 | 13.89° C | 79% | 1021 hPa | 0 mm | 0.45 m/s, 233° | - | - |
| 1777557565 | 13.33° C | 80% | 1020.9 hPa | 0 mm | 0.45 m/s, 238° | - | - |
| 1777557262 | 13.33° C | 80% | 1020.9 hPa | 0 mm | 0.45 m/s, 238° | - | - |
| 1777556871 | 12.78° C | 81% | 1021 hPa | 0 mm | 0.45 m/s, 242° | - | - |
| 1777556527 | 12.78° C | 83% | 1020.9 hPa | 0 mm | 0 m/s | - | - |
| 1777555952 | 12.22° C | 85% | 1021 hPa | 0 mm | 0 m/s | - | - |
| 1777555056 | 11.11° C | 86% | 1020.9 hPa | 0 mm | 0.45 m/s, 238° | - | - |
| 1777554153 | 11.11° C | 87% | 1021 hPa | 0 mm | 0.45 m/s, 214° | - | - |
| 1777553362 | 10.56° C | 88% | 1021 hPa | 0 mm | 0 m/s | - | - |
| 1777553271 | 10.56° C | 88% | 1021 hPa | 0 mm | 0 m/s | - | - |
| 1777552401 | 10.56° C | 88% | 1020.9 hPa | 0 mm | 0.89 m/s, 293° | - | - |
| 1777551657 | 10.56° C | 87% | 1021 hPa | 0 mm | 0.45 m/s, 242° | - | - |
| 1777551506 | 10.56° C | 87% | 1021 hPa | 0 mm | 0.89 m/s, 241° | - | - |
| 1777550872 | 11.11° C | 86% | 1021 hPa | 0 mm | 0.89 m/s, 237° | - | - |
| 1777550656 | 11.11° C | 85% | 1021 hPa | 0 mm | 0.89 m/s, 226° | - | - |
| 1777549741 | 11.11° C | 84% | 1020.9 hPa | 0 mm | 0.45 m/s, 220° | - | - |
| 1777549238 | 10.56° C | 84% | 1021 hPa | 0 mm | 0.45 m/s, 236° | - | - |
| 1777548951 | 11.11° C | 84% | 1021 hPa | 0 mm | 0.45 m/s, 240° | - | - |
| 1777548086 | 11.11° C | 84% | 1021.2 hPa | 0 mm | 0.45 m/s, 251° | - | - |
| 1777547607 | 11.11° C | 84% | 1021.1 hPa | 0 mm | 0.45 m/s, 143° | - | - |
| 1777547146 | 11.11° C | 85% | 1021.1 hPa | 0 mm | 0.45 m/s, 180° | - | - |
| 1777546777 | 11.11° C | 85% | 1021 hPa | 0 mm | 0.45 m/s, 269° | - | - |
| 1777546221 | 11.11° C | 85% | 1021 hPa | 0 mm | 0.45 m/s, 268° | - | - |
| 1777545993 | 10.56° C | 85% | 1021 hPa | 0 mm | 0.89 m/s, 295° | - | - |
| 1777545386 | 11.11° C | 85% | 1020.9 hPa | 0 mm | 0.45 m/s, 282° | - | - |
* Rain latest hour (hover to see other rain measurements)
** Current wind speed in m/s (hover to see current wind gust speed)